START_TIME,STEP,MOV.,A46,t_acc.,A13,t_acc.,M47,t_acc.,A17,t_acc.,A28,t_acc.,M38,t_acc.
1979-03-10 06:00:23.020 ,3,0,,0,1.,4.8,0.,4.8,,0,0.,4.8,0.,4.8
1979-03-10 06:00:27.820 ,3,0,,0,0.,4.8,0.,4.8,,0,0.,4.8,0.,4.8
1979-03-10 06:00:32.620 ,3,0,,0,0.,4.8,0.,4.8,,0,0.,4.8,0.,4.8
1979-03-10 06:00:37.420 ,3,0,,0,0.,4.8,0.,4.8,,0,0.,4.8,0.,4.8
1979-03-10 06:00:42.220 ,3,0,,0,0.,4.8,0.,4.8,,0,0.,4.8,0.,4.8
1979-03-10 06:00:47.020 ,2,0,,0,1.,4.8,0.,4.8,,0,0.,4.8,0.,4.8
1979-03-10 06:00:51.820 ,2,0,,0,0.,4.8,0.,4.8,,0,0.,4.8,0.,4.8
1979-03-10 06:00:56.620 ,2,0,,0,0.,4.8,0.,4.8,,0,0.,4.8,0.,4.8
1979-03-10 06:01:01.420 ,2,0,,0,0.,4.8,0.,4.8,,0,0.,4.8,0.,4.8
1979-03-10 06:01:06.220 ,2,0,,0,1.,4.8,0.,4.8,,0,0.,4.8,0.,4.8
1979-03-10 06:01:11.020 ,1,0,,0,0.,4.8,0.,4.8,,0,0.,4.8,0.,4.8
1979-03-10 06:01:15.820 ,1,0,,0,0.,4.8,0.,4.8,,0,0.,4.8,0.,4.8
1979-03-10 06:01:20.620 ,1,0,,0,0.,4.8,0.,4.8,,0,0.,4.8,0.,4.8
1979-03-10 06:01:25.420 ,1,0,,0,0.,4.8,0.,4.8,,0,0.,4.8,0.,4.8
1979-03-10 06:01:30.220 ,1,0,,0,0.,4.8,0.,4.8,,0,0.,4.8,0.,4.8
1979-03-10 06:01:35.020 ,0,0,,0,0.,4.8,0.,4.8,,0,0.,4.8,0.,4.8
1979-03-10 06:01:39.820 ,0,0,,0,0.,4.8,0.,4.8,,0,0.,4.8,0.,4.8
1979-03-10 06:01:44.620 ,0,0,,0,0.,4.8,0.,4.8,,0,0.,4.8,0.,4.8
1979-03-10 06:01:49.420 ,0,0,,0,1.,4.8,0.,4.8,,0,0.,4.8,0.,4.8
1979-03-10 06:01:54.220 ,0,0,,0,0.,4.8,0.,4.8,,0,0.,4.8,0.,4.8
1979-03-10 06:01:59.020 ,0,0,,0,0.,4.8,0.,4.8,,0,0.,4.8,0.,4.8
1979-03-10 06:02:03.820 ,0,0,,0,0.,4.8,0.,4.8,,0,0.,4.8,0.,4.8
1979-03-10 06:02:08.620 ,0,0,,0,0.,4.8,0.,4.8,,0,0.,4.8,0.,4.8
1979-03-10 06:02:13.420 ,0,0,,0,0.,4.8,0.,4.8,,0,0.,4.8,0.,4.8
1979-03-10 06:02:18.220 ,0,0,,0,0.,4.8,0.,4.8,,0,0.,4.8,0.,4.8
1979-03-10 06:02:23.020 ,1,0,,0,0.,4.8,0.,4.8,,0,0.,4.8,0.,4.8
1979-03-10 06:02:27.820 ,1,0,,0,0.,4.8,0.,4.8,,0,0.,4.8,0.,4.8
1979-03-10 06:02:32.620 ,1,0,,0,0.,4.8,0.,4.8,,0,0.,4.8,0.,4.8
1979-03-10 06:02:37.420 ,1,0,,0,0.,4.8,0.,4.8,,0,0.,4.8,0.,4.8
1979-03-10 06:02:42.220 ,1,0,,0,0.,4.8,0.,4.8,,0,0.,4.8,0.,4.8
1979-03-10 06:02:47.020 ,2,0,,0,0.,4.8,0.,4.8,,0,0.,4.8,0.,4.8
1979-03-10 06:02:51.820 ,2,0,,0,0.,4.8,0.,4.8,,0,0.,4.8,0.,4.8
1979-03-10 06:02:56.620 ,2,0,,0,0.,4.8,0.,4.8,,0,0.,4.8,0.,4.8
1979-03-10 06:03:01.420 ,2,0,,0,0.,4.8,0.,4.8,,0,0.,4.8,0.,4.8
1979-03-10 06:03:06.220 ,2,0,,0,0.,4.8,0.,4.8,,0,0.,4.8,0.,4.8
1979-03-10 06:03:11.020 ,3,0,,0,0.,4.8,0.,4.8,,0,0.,4.8,0.,4.8
1979-03-10 06:03:15.820 ,3,0,,0,0.,4.8,0.,4.8,,0,0.,4.8,0.,4.8
1979-03-10 06:03:20.620 ,3,0,,0,0.,4.8,0.,4.8,,0,0.,4.8,0.,4.8
1979-03-10 06:03:25.420 ,3,0,,0,0.,4.8,0.,4.8,,0,0.,4.8,0.,4.8
1979-03-10 06:03:30.220 ,3,0,,0,0.,4.8,0.,4.8,,0,0.,4.8,0.,4.8
1979-03-10 06:03:35.020 ,4,0,,0,0.,4.8,0.,4.8,,0,0.,4.8,0.,4.8
1979-03-10 06:03:39.820 ,4,0,,0,1.,4.8,0.,4.8,,0,0.,4.8,0.,4.8
1979-03-10 06:03:44.620 ,4,0,,0,0.,4.8,0.,4.8,,0,0.,4.8,0.,4.8
1979-03-10 06:03:49.420 ,4,0,,0,0.,4.8,0.,4.8,,0,0.,4.8,0.,4.8
1979-03-10 06:03:54.220 ,4,0,,0,0.,4.8,0.,4.8,,0,0.,4.8,0.,4.8
1979-03-10 06:03:59.020 ,5,0,,0,0.,4.8,0.,4.8,,0,0.,4.8,0.,4.8
1979-03-10 06:04:03.820 ,5,0,,0,0.,4.8,0.,4.8,,0,0.,4.8,0.,4.8
1979-03-10 06:04:08.620 ,5,0,,0,0.,4.8,0.,4.8,,0,0.,4.8,0.,4.8
1979-03-10 06:04:13.420 ,5,0,,0,0.,4.8,0.,4.8,,0,0.,4.8,0.,4.8
1979-03-10 06:04:18.220 ,5,0,,0,0.,4.8,0.,4.8,,0,0.,4.8,0.,4.8
1979-03-10 06:04:23.020 ,6,0,,0,0.,4.8,0.,4.8,,0,0.,4.8,0.,4.8
1979-03-10 06:04:27.820 ,6,0,,0,0.,4.8,0.,4.8,,0,0.,4.8,0.,4.8
1979-03-10 06:04:32.620 ,6,0,,0,0.,4.8,0.,4.8,,0,0.,4.8,0.,4.8
1979-03-10 06:04:37.420 ,6,0,,0,0.,4.8,0.,4.8,,0,0.,4.8,0.,4.8
1979-03-10 06:04:42.220 ,6,0,,0,0.,4.8,0.,4.8,,0,0.,4.8,0.,4.8
1979-03-10 06:04:47.020 ,7,0,,0,0.,4.8,0.,4.8,,0,0.,4.8,0.,4.8
1979-03-10 06:04:51.820 ,7,0,,0,0.,4.8,0.,4.8,,0,0.,4.8,0.,4.8
1979-03-10 06:04:56.620 ,7,0,,0,0.,4.8,0.,4.8,,0,0.,4.8,0.,4.8
1979-03-10 06:05:01.420 ,7,0,,0,3.,4.8,0.,4.8,,0,0.,4.8,0.,4.8
1979-03-10 06:05:06.220 ,7,0,,0,5.,4.8,0.,4.8,,0,0.,4.8,0.,4.8
1979-03-10 06:05:11.020 ,7,0,,0,5.,4.8,0.,4.8,,0,0.,4.8,0.,4.8
1979-03-10 06:05:15.820 ,7,0,,0,6.,4.8,0.,4.8,,0,0.,4.8,0.,4.8
1979-03-10 06:05:20.620 ,7,0,,0,6.,4.8,0.,4.8,,0,0.,4.8,0.,4.8
1979-03-10 06:05:25.420 ,7,0,,0,0.,4.8,0.,4.8,,0,0.,4.8,0.,4.8
1979-03-10 06:05:30.220 ,7,0,,0,0.,4.8,0.,4.8,,0,0.,4.8,0.,4.8
1979-03-10 06:05:35.020 ,6,0,,0,0.,4.8,0.,4.8,,0,0.,4.8,0.,4.8
1979-03-10 06:05:39.820 ,6,0,,0,0.,4.8,0.,4.8,,0,0.,4.8,0.,4.8
1979-03-10 06:05:44.620 ,6,0,,0,0.,4.8,0.,4.8,,0,0.,4.8,0.,4.8
1979-03-10 06:05:49.420 ,6,0,,0,0.,4.8,0.,4.8,,0,0.,4.8,0.,4.8
1979-03-10 06:05:54.220 ,6,0,,0,0.,4.8,0.,4.8,,0,0.,4.8,0.,4.8
1979-03-10 06:05:59.020 ,5,0,,0,0.,4.8,0.,4.8,,0,0.,4.8,0.,4.8
1979-03-10 06:06:03.820 ,5,0,,0,1.,4.8,0.,4.8,,0,0.,4.8,0.,4.8
1979-03-10 06:06:08.620 ,5,0,,0,0.,4.8,0.,4.8,,0,0.,4.8,0.,4.8
1979-03-10 06:06:13.420 ,5,0,,0,0.,4.8,0.,4.8,,0,0.,4.8,0.,4.8
1979-03-10 06:06:18.220 ,5,0,,0,0.,4.8,0.,4.8,,0,0.,4.8,0.,4.8
1979-03-10 06:06:23.020 ,4,0,,0,0.,4.8,0.,4.8,,0,0.,4.8,0.,4.8
1979-03-10 06:06:27.820 ,4,0,,0,0.,4.8,0.,4.8,,0,0.,4.8,0.,4.8
1979-03-10 06:06:32.620 ,4,0,,0,0.,4.8,0.,4.8,,0,0.,4.8,0.,4.8
1979-03-10 06:06:37.420 ,4,0,,0,0.,4.8,0.,4.8,,0,0.,4.8,0.,4.8
1979-03-10 06:06:42.220 ,4,0,,0,0.,4.8,0.,4.8,,0,0.,4.8,0.,4.8
1979-03-10 06:06:47.020 ,3,0,,0,0.,4.8,0.,4.8,,0,0.,4.8,0.,4.8
1979-03-10 06:06:51.820 ,3,0,,0,0.,4.8,0.,4.8,,0,0.,4.8,0.,4.8
1979-03-10 06:06:56.620 ,3,0,,0,0.,4.8,0.,4.8,,0,0.,4.8,0.,4.8
1979-03-10 06:07:01.420 ,3,0,,0,0.,4.8,0.,4.8,,0,0.,4.8,0.,4.8
1979-03-10 06:07:06.220 ,3,0,,0,0.,4.8,0.,4.8,,0,0.,4.8,0.,4.8
1979-03-10 06:07:11.020 ,2,0,,0,0.,4.8,0.,4.8,,0,0.,4.8,0.,4.8
1979-03-10 06:07:15.820 ,2,0,,0,0.,4.8,0.,4.8,,0,0.,4.8,0.,4.8
1979-03-10 06:07:20.620 ,2,0,,0,0.,4.8,0.,4.8,,0,0.,4.8,0.,4.8
1979-03-10 06:07:25.420 ,2,0,,0,0.,4.8,0.,4.8,,0,0.,4.8,0.,4.8
1979-03-10 06:07:30.220 ,2,0,,0,0.,4.8,0.,4.8,,0,0.,4.8,0.,4.8
1979-03-10 06:07:35.020 ,1,0,,0,0.,4.8,0.,4.8,,0,0.,4.8,0.,4.8
1979-03-10 06:07:39.820 ,1,0,,0,0.,4.8,0.,4.8,,0,0.,4.8,0.,4.8
1979-03-10 06:07:44.620 ,1,0,,0,0.,4.8,0.,4.8,,0,0.,4.8,0.,4.8
1979-03-10 06:07:49.420 ,1,0,,0,0.,4.8,0.,4.8,,0,0.,4.8,0.,4.8
1979-03-10 06:07:54.220 ,1,0,,0,0.,4.8,0.,4.8,,0,0.,4.8,0.,4.8
1979-03-10 06:07:59.020 ,0,0,,0,0.,4.8,0.,4.8,,0,0.,4.8,0.,4.8
1979-03-10 06:08:03.820 ,0,0,,0,0.,4.8,0.,4.8,,0,0.,4.8,0.,4.8
1979-03-10 06:08:08.620 ,0,0,,0,0.,4.8,0.,4.8,,0,0.,4.8,0.,4.8
1979-03-10 06:08:13.420 ,0,0,,0,1.,4.8,1.,4.8,,0,0.,4.8,0.,4.8
1979-03-10 06:08:18.220 ,0,0,,0,0.,4.8,0.,4.8,,0,0.,4.8,0.,4.8
1979-03-10 06:08:23.020 ,0,0,,0,0.,4.8,0.,4.8,,0,0.,4.8,0.,4.8
1979-03-10 06:08:27.820 ,0,0,,0,0.,4.8,0.,4.8,,0,0.,4.8,0.,4.8
1979-03-10 06:08:32.620 ,0,0,,0,0.,4.8,0.,4.8,,0,0.,4.8,0.,4.8
1979-03-10 06:08:37.420 ,0,0,,0,0.,4.8,0.,4.8,,0,0.,4.8,0.,4.8
1979-03-10 06:08:42.220 ,0,0,,0,0.,4.8,0.,4.8,,0,0.,4.8,0.,4.8
1979-03-10 06:08:47.020 ,1,0,,0,0.,4.8,0.,4.8,,0,0.,4.8,0.,4.8
1979-03-10 06:08:51.820 ,1,0,,0,0.,4.8,0.,4.8,,0,0.,4.8,0.,4.8
1979-03-10 06:08:56.620 ,1,0,,0,0.,4.8,0.,4.8,,0,0.,4.8,0.,4.8
1979-03-10 06:09:01.420 ,1,0,,0,0.,4.8,0.,4.8,,0,0.,4.8,0.,4.8
1979-03-10 06:09:06.220 ,1,0,,0,0.,4.8,0.,4.8,,0,0.,4.8,0.,4.8
1979-03-10 06:09:11.020 ,2,0,,0,0.,4.8,0.,4.8,,0,0.,4.8,0.,4.8
1979-03-10 06:09:15.820 ,2,0,,0,0.,4.8,0.,4.8,,0,0.,4.8,0.,4.8
1979-03-10 06:09:20.620 ,2,0,,0,0.,4.8,0.,4.8,,0,0.,4.8,0.,4.8
1979-03-10 06:09:25.420 ,2,0,,0,0.,4.8,0.,4.8,,0,0.,4.8,0.,4.8
1979-03-10 06:09:30.220 ,2,0,,0,0.,4.8,0.,4.8,,0,0.,4.8,0.,4.8
1979-03-10 06:09:35.020 ,3,0,,0,0.,4.8,0.,4.8,,0,0.,4.8,0.,4.8
1979-03-10 06:09:39.820 ,3,0,,0,0.,4.8,0.,4.8,,0,0.,4.8,0.,4.8
1979-03-10 06:09:44.620 ,3,0,,0,0.,4.8,0.,4.8,,0,0.,4.8,0.,4.8
1979-03-10 06:09:49.420 ,3,0,,0,0.,4.8,0.,4.8,,0,0.,4.8,0.,4.8
1979-03-10 06:09:54.220 ,3,0,,0,0.,4.8,0.,4.8,,0,0.,4.8,0.,4.8
1979-03-10 06:09:59.020 ,4,0,,0,0.,4.8,0.,4.8,,0,0.,4.8,0.,4.8
1979-03-10 06:10:03.820 ,4,0,,0,0.,4.8,0.,4.8,,0,0.,4.8,0.,4.8
1979-03-10 06:10:08.620 ,4,0,,0,0.,4.8,0.,4.8,,0,0.,4.8,0.,4.8
1979-03-10 06:10:13.420 ,4,0,,0,0.,4.8,0.,4.8,,0,0.,4.8,0.,4.8
1979-03-10 06:10:18.220 ,4,0,,0,0.,4.8,0.,4.8,,0,0.,4.8,0.,4.8
1979-03-10 06:10:23.020 ,5,0,,0,0.,4.8,0.,4.8,,0,0.,4.8,0.,4.8
1979-03-10 06:10:27.820 ,5,0,,0,0.,4.8,0.,4.8,,0,0.,4.8,0.,4.8
1979-03-10 06:10:32.620 ,5,0,,0,0.,4.8,0.,4.8,,0,0.,4.8,0.,4.8
1979-03-10 06:10:37.420 ,5,0,,0,0.,4.8,0.,4.8,,0,0.,4.8,0.,4.8
1979-03-10 06:10:42.220 ,5,0,,0,0.,4.8,0.,4.8,,0,0.,4.8,0.,4.8
1979-03-10 06:10:47.020 ,6,0,,0,0.,4.8,0.,4.8,,0,0.,4.8,0.,4.8
1979-03-10 06:10:51.820 ,6,0,,0,0.,4.8,0.,4.8,,0,0.,4.8,0.,4.8
1979-03-10 06:10:56.620 ,6,0,,0,2.,4.8,0.,4.8,,0,0.,4.8,0.,4.8
1979-03-10 06:11:01.420 ,6,0,,0,0.,4.8,0.,4.8,,0,0.,4.8,0.,4.8
1979-03-10 06:11:06.220 ,6,0,,0,0.,4.8,0.,4.8,,0,0.,4.8,0.,4.8
1979-03-10 06:11:11.020 ,7,0,,0,0.,4.8,0.,4.8,,0,0.,4.8,0.,4.8
1979-03-10 06:11:15.820 ,7,0,,0,0.,4.8,0.,4.8,,0,0.,4.8,0.,4.8
1979-03-10 06:11:20.620 ,7,0,,0,1.,4.8,0.,4.8,,0,0.,4.8,0.,4.8
1979-03-10 06:11:25.420 ,7,0,,0,4.,4.8,0.,4.8,,0,0.,4.8,0.,4.8
1979-03-10 06:11:30.220 ,7,0,,0,2.,4.8,0.,4.8,,0,0.,4.8,0.,4.8
1979-03-10 06:11:35.020 ,7,0,,0,3.,4.8,0.,4.8,,0,0.,4.8,0.,4.8
1979-03-10 06:11:39.820 ,7,0,,0,6.,4.8,0.,4.8,,0,0.,4.8,0.,4.8
1979-03-10 06:11:44.620 ,7,0,,0,3.,4.8,0.,4.8,,0,0.,4.8,0.,4.8
1979-03-10 06:11:49.420 ,7,0,,0,0.,4.8,0.,4.8,,0,0.,4.8,0.,4.8
1979-03-10 06:11:54.220 ,7,0,,0,0.,4.8,0.,4.8,,0,0.,4.8,0.,4.8
1979-03-10 06:11:59.020 ,6,0,,0,0.,4.8,0.,4.8,,0,0.,4.8,0.,4.8
1979-03-10 06:12:03.820 ,6,0,,0,0.,4.8,0.,4.8,,0,0.,4.8,0.,4.8
1979-03-10 06:12:08.620 ,6,0,,0,0.,4.8,0.,4.8,,0,0.,4.8,0.,4.8
1979-03-10 06:12:13.420 ,6,0,,0,0.,4.8,0.,4.8,,0,0.,4.8,0.,4.8
1979-03-10 06:12:18.220 ,6,0,,0,0.,4.8,0.,4.8,,0,0.,4.8,0.,4.8
1979-03-10 06:12:23.020 ,5,0,,0,0.,4.8,0.,4.8,,0,0.,4.8,0.,4.8
1979-03-10 06:12:27.820 ,5,0,,0,1.,4.8,0.,4.8,,0,0.,4.8,0.,4.8
1979-03-10 06:12:32.620 ,5,0,,0,0.,4.8,0.,4.8,,0,0.,4.8,0.,4.8
1979-03-10 06:12:37.420 ,5,0,,0,0.,4.8,0.,4.8,,0,0.,4.8,0.,4.8
1979-03-10 06:12:42.220 ,5,0,,0,0.,4.8,0.,4.8,,0,0.,4.8,0.,4.8
1979-03-10 06:12:47.020 ,4,0,,0,0.,4.8,0.,4.8,,0,0.,4.8,0.,4.8
1979-03-10 06:12:51.820 ,4,0,,0,0.,4.8,0.,4.8,,0,0.,4.8,0.,4.8
1979-03-10 06:12:56.620 ,4,0,,0,0.,4.8,0.,4.8,,0,0.,4.8,0.,4.8
1979-03-10 06:13:01.420 ,4,0,,0,0.,4.8,0.,4.8,,0,0.,4.8,0.,4.8
1979-03-10 06:13:06.220 ,4,0,,0,0.,4.8,0.,4.8,,0,0.,4.8,0.,4.8
1979-03-10 06:13:11.020 ,3,0,,0,0.,4.8,0.,4.8,,0,0.,4.8,0.,4.8
1979-03-10 06:13:15.820 ,3,0,,0,1.,4.8,1.,4.8,,0,0.,4.8,0.,4.8
1979-03-10 06:13:20.620 ,3,0,,0,0.,4.8,0.,4.8,,0,0.,4.8,0.,4.8
1979-03-10 06:13:25.420 ,3,0,,0,0.,4.8,0.,4.8,,0,0.,4.8,0.,4.8
1979-03-10 06:13:30.220 ,3,0,,0,0.,4.8,0.,4.8,,0,0.,4.8,0.,4.8
1979-03-10 06:13:35.020 ,2,0,,0,0.,4.8,0.,4.8,,0,0.,4.8,0.,4.8
1979-03-10 06:13:39.820 ,2,0,,0,0.,4.8,0.,4.8,,0,0.,4.8,0.,4.8
1979-03-10 06:13:44.620 ,2,0,,0,0.,4.8,0.,4.8,,0,0.,4.8,0.,4.8
1979-03-10 06:13:49.420 ,2,0,,0,0.,4.8,0.,4.8,,0,0.,4.8,0.,4.8
1979-03-10 06:13:54.220 ,2,0,,0,0.,4.8,0.,4.8,,0,0.,4.8,0.,4.8
1979-03-10 06:13:59.020 ,1,0,,0,0.,4.8,0.,4.8,,0,0.,4.8,0.,4.8
1979-03-10 06:14:03.820 ,1,0,,0,0.,4.8,0.,4.8,,0,0.,4.8,0.,4.8
1979-03-10 06:14:08.620 ,1,0,,0,0.,4.8,0.,4.8,,0,0.,4.8,0.,4.8
1979-03-10 06:14:13.420 ,1,0,,0,1.,4.8,0.,4.8,,0,0.,4.8,0.,4.8
1979-03-10 06:14:18.220 ,1,0,,0,0.,4.8,0.,4.8,,0,0.,4.8,0.,4.8
1979-03-10 06:14:23.020 ,0,0,,0,1.,4.8,0.,4.8,,0,0.,4.8,0.,4.8
1979-03-10 06:14:27.820 ,0,0,,0,0.,4.8,0.,4.8,,0,0.,4.8,0.,4.8
1979-03-10 06:14:32.620 ,0,0,,0,0.,4.8,0.,4.8,,0,0.,4.8,0.,4.8
1979-03-10 06:14:37.420 ,0,0,,0,0.,4.8,0.,4.8,,0,0.,4.8,0.,4.8
1979-03-10 06:14:42.220 ,0,0,,0,0.,4.8,0.,4.8,,0,0.,4.8,0.,4.8
1979-03-10 06:14:47.020 ,0,0,,0,0.,4.8,0.,4.8,,0,0.,4.8,0.,4.8
1979-03-10 06:14:51.820 ,0,0,,0,0.,4.8,0.,4.8,,0,0.,4.8,0.,4.8
1979-03-10 06:14:56.620 ,0,0,,0,0.,4.8,0.,4.8,,0,0.,4.8,0.,4.8
1979-03-10 06:15:01.420 ,0,0,,0,0.,4.8,0.,4.8,,0,0.,4.8,0.,4.8
1979-03-10 06:15:06.220 ,0,0,,0,0.,4.8,0.,4.8,,0,0.,4.8,0.,4.8
1979-03-10 06:15:11.020 ,1,0,,0,0.,4.8,0.,4.8,,0,0.,4.8,0.,4.8
1979-03-10 06:15:15.820 ,1,0,,0,0.,4.8,0.,4.8,,0,0.,4.8,0.,4.8
1979-03-10 06:15:20.620 ,1,0,,0,0.,4.8,0.,4.8,,0,0.,4.8,0.,4.8
1979-03-10 06:15:25.420 ,1,0,,0,0.,4.8,0.,4.8,,0,0.,4.8,0.,4.8
1979-03-10 06:15:30.220 ,1,0,,0,0.,4.8,0.,4.8,,0,0.,4.8,0.,4.8
1979-03-10 06:15:35.020 ,2,0,,0,0.,4.8,0.,4.8,,0,0.,4.8,0.,4.8
1979-03-10 06:15:39.820 ,2,0,,0,0.,4.8,0.,4.8,,0,0.,4.8,0.,4.8
1979-03-10 06:15:44.620 ,2,0,,0,0.,4.8,0.,4.8,,0,0.,4.8,0.,4.8
1979-03-10 06:15:49.420 ,2,0,,0,0.,4.8,0.,4.8,,0,0.,4.8,0.,4.8
1979-03-10 06:15:54.220 ,2,0,,0,0.,4.8,0.,4.8,,0,0.,4.8,0.,4.8
1979-03-10 06:15:59.020 ,3,0,,0,0.,4.8,0.,4.8,,0,0.,4.8,0.,4.8
1979-03-10 06:16:03.820 ,3,0,,0,0.,4.8,0.,4.8,,0,0.,4.8,0.,4.8
1979-03-10 06:16:08.620 ,3,0,,0,0.,4.8,0.,4.8,,0,0.,4.8,0.,4.8
1979-03-10 06:16:13.420 ,3,0,,0,1.,4.8,1.,4.8,,0,0.,4.8,0.,4.8
1979-03-10 06:16:18.220 ,3,0,,0,0.,4.8,0.,4.8,,0,0.,4.8,0.,4.8
1979-03-10 06:16:23.020 ,4,0,,0,0.,4.8,0.,4.8,,0,0.,4.8,0.,4.8
1979-03-10 06:16:27.820 ,4,0,,0,0.,4.8,0.,4.8,,0,0.,4.8,0.,4.8
1979-03-10 06:16:32.620 ,4,0,,0,1.,4.8,0.,4.8,,0,0.,4.8,0.,4.8
1979-03-10 06:16:37.420 ,4,0,,0,0.,4.8,0.,4.8,,0,0.,4.8,0.,4.8
1979-03-10 06:16:42.220 ,4,0,,0,0.,4.8,0.,4.8,,0,0.,4.8,0.,4.8
1979-03-10 06:16:47.020 ,5,0,,0,1.,4.8,0.,4.8,,0,0.,4.8,0.,4.8
1979-03-10 06:16:51.820 ,5,0,,0,0.,4.8,0.,4.8,,0,0.,4.8,0.,4.8
1979-03-10 06:16:56.620 ,5,0,,0,0.,4.8,0.,4.8,,0,0.,4.8,0.,4.8
1979-03-10 06:17:01.420 ,5,0,,0,0.,4.8,0.,4.8,,0,0.,4.8,0.,4.8
1979-03-10 06:17:06.220 ,5,0,,0,0.,4.8,0.,4.8,,0,0.,4.8,0.,4.8
1979-03-10 06:17:11.020 ,6,0,,0,0.,4.8,0.,4.8,,0,0.,4.8,0.,4.8
1979-03-10 06:17:15.820 ,6,0,,0,0.,4.8,0.,4.8,,0,0.,4.8,0.,4.8
1979-03-10 06:17:20.620 ,6,0,,0,1.,4.8,0.,4.8,,0,0.,4.8,0.,4.8
1979-03-10 06:17:25.420 ,6,0,,0,0.,4.8,0.,4.8,,0,0.,4.8,0.,4.8
1979-03-10 06:17:30.220 ,6,0,,0,0.,4.8,0.,4.8,,0,0.,4.8,0.,4.8
1979-03-10 06:17:35.020 ,7,0,,0,0.,4.8,0.,4.8,,0,0.,4.8,0.,4.8
1979-03-10 06:17:39.820 ,7,0,,0,0.,4.8,0.,4.8,,0,0.,4.8,0.,4.8
1979-03-10 06:17:44.620 ,7,0,,0,2.,4.8,0.,4.8,,0,0.,4.8,0.,4.8
1979-03-10 06:17:49.420 ,7,0,,0,5.,4.8,0.,4.8,,0,0.,4.8,0.,4.8
1979-03-10 06:17:54.220 ,7,0,,0,4.,4.8,0.,4.8,,0,0.,4.8,0.,4.8
1979-03-10 06:17:59.020 ,7,0,,0,2.,4.8,0.,4.8,,0,0.,4.8,0.,4.8
1979-03-10 06:18:03.820 ,7,0,,0,5.,4.8,0.,4.8,,0,0.,4.8,0.,4.8
1979-03-10 06:18:08.620 ,7,0,,0,11.,4.8,0.,4.8,,0,0.,4.8,0.,4.8
1979-03-10 06:18:13.420 ,7,0,,0,0.,4.8,0.,4.8,,0,0.,4.8,0.,4.8
1979-03-10 06:18:18.220 ,7,0,,0,0.,4.8,0.,4.8,,0,0.,4.8,0.,4.8
1979-03-10 06:18:23.020 ,6,0,,0,0.,4.8,0.,4.8,,0,0.,4.8,0.,4.8
1979-03-10 06:18:27.820 ,6,0,,0,0.,4.8,0.,4.8,,0,0.,4.8,0.,4.8
1979-03-10 06:18:32.620 ,6,0,,0,0.,4.8,0.,4.8,,0,0.,4.8,0.,4.8
1979-03-10 06:18:37.420 ,6,0,,0,0.,4.8,0.,4.8,,0,0.,4.8,0.,4.8
1979-03-10 06:18:42.220 ,6,0,,0,0.,4.8,0.,4.8,,0,0.,4.8,0.,4.8
1979-03-10 06:18:47.020 ,5,0,,0,0.,4.8,0.,4.8,,0,0.,4.8,0.,4.8
1979-03-10 06:18:51.820 ,5,0,,0,1.,4.8,0.,4.8,,0,0.,4.8,0.,4.8
1979-03-10 06:18:56.620 ,5,0,,0,0.,4.8,0.,4.8,,0,0.,4.8,0.,4.8
1979-03-10 06:19:01.420 ,5,0,,0,0.,4.8,0.,4.8,,0,0.,4.8,0.,4.8
1979-03-10 06:19:06.220 ,5,0,,0,0.,4.8,0.,4.8,,0,0.,4.8,0.,4.8
1979-03-10 06:19:11.020 ,4,0,,0,0.,4.8,0.,4.8,,0,0.,4.8,0.,4.8
1979-03-10 06:19:15.820 ,4,0,,0,0.,4.8,0.,4.8,,0,0.,4.8,0.,4.8
1979-03-10 06:19:20.620 ,4,0,,0,0.,4.8,0.,4.8,,0,0.,4.8,0.,4.8
1979-03-10 06:19:25.420 ,4,0,,0,0.,4.8,0.,4.8,,0,0.,4.8,0.,4.8
1979-03-10 06:19:30.220 ,4,0,,0,0.,4.8,0.,4.8,,0,0.,4.8,0.,4.8
1979-03-10 06:19:35.020 ,3,0,,0,0.,4.8,0.,4.8,,0,0.,4.8,0.,4.8
1979-03-10 06:19:39.820 ,3,0,,0,0.,4.8,0.,4.8,,0,0.,4.8,0.,4.8
1979-03-10 06:19:44.620 ,3,0,,0,0.,4.8,0.,4.8,,0,0.,4.8,0.,4.8
1979-03-10 06:19:49.420 ,3,0,,0,0.,4.8,0.,4.8,,0,0.,4.8,0.,4.8
1979-03-10 06:19:54.220 ,3,0,,0,0.,4.8,0.,4.8,,0,0.,4.8,0.,4.8
1979-03-10 06:19:59.020 ,2,0,,0,0.,4.8,0.,4.8,,0,0.,4.8,0.,4.8
1979-03-10 06:20:03.820 ,2,0,,0,0.,4.8,0.,4.8,,0,0.,4.8,0.,4.8
1979-03-10 06:20:08.620 ,2,0,,0,0.,4.8,0.,4.8,,0,0.,4.8,0.,4.8
1979-03-10 06:20:13.420 ,2,0,,0,1.,4.8,0.,4.8,,0,0.,4.8,0.,4.8
1979-03-10 06:20:18.220 ,2,0,,0,0.,4.8,0.,4.8,,0,0.,4.8,0.,4.8
1979-03-10 06:20:23.020 ,1,0,,0,0.,4.8,0.,4.8,,0,0.,4.8,0.,4.8
1979-03-10 06:20:27.820 ,1,0,,0,0.,4.8,0.,4.8,,0,0.,4.8,0.,4.8
1979-03-10 06:20:32.620 ,1,0,,0,0.,4.8,0.,4.8,,0,0.,4.8,0.,4.8
1979-03-10 06:20:37.420 ,1,0,,0,0.,4.8,0.,4.8,,0,0.,4.8,0.,4.8
1979-03-10 06:20:42.220 ,1,0,,0,0.,4.8,0.,4.8,,0,0.,4.8,0.,4.8
1979-03-10 06:20:47.020 ,0,0,,0,0.,4.8,0.,4.8,,0,0.,4.8,0.,4.8
1979-03-10 06:20:51.820 ,0,0,,0,0.,4.8,0.,4.8,,0,0.,4.8,0.,4.8
1979-03-10 06:20:56.620 ,0,0,,0,0.,4.8,0.,4.8,,0,0.,4.8,0.,4.8
1979-03-10 06:21:01.420 ,0,0,,0,0.,4.8,0.,4.8,,0,0.,4.8,0.,4.8
1979-03-10 06:21:06.220 ,0,0,,0,0.,4.8,0.,4.8,,0,0.,4.8,0.,4.8
1979-03-10 06:21:11.020 ,0,0,,0,0.,4.8,0.,4.8,,0,0.,4.8,0.,4.8
1979-03-10 06:21:15.820 ,0,0,,0,0.,4.8,0.,4.8,,0,0.,4.8,0.,4.8
1979-03-10 06:21:20.620 ,0,0,,0,0.,4.8,0.,4.8,,0,0.,4.8,0.,4.8
1979-03-10 06:21:25.420 ,0,0,,0,0.,4.8,0.,4.8,,0,0.,4.8,0.,4.8
1979-03-10 06:21:30.220 ,0,0,,0,0.,4.8,0.,4.8,,0,0.,4.8,0.,4.8
1979-03-10 06:21:35.020 ,1,0,,0,0.,4.8,0.,4.8,,0,0.,4.8,0.,4.8
1979-03-10 06:21:39.820 ,1,0,,0,0.,4.8,0.,4.8,,0,0.,4.8,0.,4.8
1979-03-10 06:21:44.620 ,1,0,,0,0.,4.8,0.,4.8,,0,0.,4.8,0.,4.8
1979-03-10 06:21:49.420 ,1,0,,0,0.,4.8,0.,4.8,,0,0.,4.8,0.,4.8
1979-03-10 06:21:54.220 ,1,0,,0,0.,4.8,0.,4.8,,0,0.,4.8,0.,4.8
1979-03-10 06:21:59.020 ,2,0,,0,0.,4.8,0.,4.8,,0,0.,4.8,0.,4.8
1979-03-10 06:22:03.820 ,2,0,,0,0.,4.8,0.,4.8,,0,0.,4.8,0.,4.8
1979-03-10 06:22:08.620 ,2,0,,0,0.,4.8,0.,4.8,,0,0.,4.8,0.,4.8
1979-03-10 06:22:13.420 ,2,0,,0,0.,4.8,0.,4.8,,0,0.,4.8,0.,4.8
1979-03-10 06:22:18.220 ,2,0,,0,0.,4.8,0.,4.8,,0,0.,4.8,0.,4.8
1979-03-10 06:22:23.020 ,3,0,,0,0.,4.8,0.,4.8,,0,0.,4.8,0.,4.8
1979-03-10 06:22:27.820 ,3,0,,0,0.,4.8,0.,4.8,,0,0.,4.8,0.,4.8
1979-03-10 06:22:32.620 ,3,0,,0,0.,4.8,0.,4.8,,0,0.,4.8,0.,4.8
1979-03-10 06:22:37.420 ,3,0,,0,1.,4.8,0.,4.8,,0,0.,4.8,0.,4.8
1979-03-10 06:22:42.220 ,3,0,,0,0.,4.8,0.,4.8,,0,0.,4.8,0.,4.8
1979-03-10 06:22:47.020 ,4,0,,0,0.,4.8,0.,4.8,,0,0.,4.8,0.,4.8
1979-03-10 06:22:51.820 ,4,0,,0,0.,4.8,0.,4.8,,0,0.,4.8,0.,4.8
1979-03-10 06:22:56.620 ,4,0,,0,0.,4.8,0.,4.8,,0,0.,4.8,0.,4.8
1979-03-10 06:23:01.420 ,4,0,,0,0.,4.8,0.,4.8,,0,0.,4.8,0.,4.8
1979-03-10 06:23:06.220 ,4,0,,0,0.,4.8,0.,4.8,,0,0.,4.8,0.,4.8
1979-03-10 06:23:11.020 ,5,0,,0,0.,4.8,0.,4.8,,0,0.,4.8,0.,4.8
1979-03-10 06:23:15.820 ,5,0,,0,0.,4.8,0.,4.8,,0,0.,4.8,0.,4.8
1979-03-10 06:23:20.620 ,5,0,,0,0.,4.8,0.,4.8,,0,0.,4.8,0.,4.8
1979-03-10 06:23:25.420 ,5,0,,0,0.,4.8,0.,4.8,,0,0.,4.8,0.,4.8
1979-03-10 06:23:30.220 ,5,0,,0,0.,4.8,0.,4.8,,0,0.,4.8,0.,4.8
1979-03-10 06:23:35.020 ,6,0,,0,0.,4.8,0.,4.8,,0,0.,4.8,0.,4.8
1979-03-10 06:23:39.820 ,6,0,,0,0.,4.8,0.,4.8,,0,0.,4.8,0.,4.8
1979-03-10 06:23:44.620 ,6,0,,0,0.,4.8,0.,4.8,,0,0.,4.8,0.,4.8
1979-03-10 06:23:49.420 ,6,0,,0,0.,4.8,0.,4.8,,0,0.,4.8,0.,4.8
1979-03-10 06:23:54.220 ,6,0,,0,0.,4.8,0.,4.8,,0,0.,4.8,0.,4.8
1979-03-10 06:23:59.020 ,7,0,,0,0.,4.8,0.,4.8,,0,0.,4.8,0.,4.8
1979-03-10 06:24:03.820 ,7,0,,0,0.,4.8,0.,4.8,,0,0.,4.8,0.,4.8
1979-03-10 06:24:08.620 ,7,0,,0,1.,4.8,0.,4.8,,0,0.,4.8,0.,4.8
1979-03-10 06:24:13.420 ,7,0,,0,4.,4.8,0.,4.8,,0,0.,4.8,0.,4.8
1979-03-10 06:24:18.220 ,7,0,,0,2.,4.8,0.,4.8,,0,0.,4.8,0.,4.8
1979-03-10 06:24:23.020 ,7,0,,0,6.,4.8,0.,4.8,,0,0.,4.8,0.,4.8
1979-03-10 06:24:27.820 ,7,0,,0,8.,4.8,0.,4.8,,0,0.,4.8,0.,4.8
1979-03-10 06:24:32.620 ,7,0,,0,0.,4.8,0.,4.8,,0,0.,4.8,0.,4.8
1979-03-10 06:24:37.420 ,7,0,,0,0.,4.8,0.,4.8,,0,0.,4.8,0.,4.8
1979-03-10 06:24:42.220 ,7,0,,0,0.,4.8,0.,4.8,,0,0.,4.8,0.,4.8
1979-03-10 06:24:47.020 ,6,0,,0,0.,4.8,0.,4.8,,0,0.,4.8,0.,4.8
1979-03-10 06:24:51.820 ,6,0,,0,0.,4.8,0.,4.8,,0,0.,4.8,0.,4.8
1979-03-10 06:24:56.620 ,6,0,,0,0.,4.8,0.,4.8,,0,0.,4.8,0.,4.8
1979-03-10 06:25:01.420 ,6,0,,0,0.,4.8,0.,4.8,,0,0.,4.8,0.,4.8
1979-03-10 06:25:06.220 ,6,0,,0,0.,4.8,0.,4.8,,0,0.,4.8,0.,4.8
1979-03-10 06:25:11.020 ,5,0,,0,0.,4.8,0.,4.8,,0,0.,4.8,0.,4.8
1979-03-10 06:25:15.820 ,5,0,,0,0.,4.8,0.,4.8,,0,0.,4.8,0.,4.8
1979-03-10 06:25:20.620 ,5,0,,0,0.,4.8,0.,4.8,,0,0.,4.8,0.,4.8
1979-03-10 06:25:25.420 ,5,0,,0,0.,4.8,0.,4.8,,0,0.,4.8,0.,4.8
1979-03-10 06:25:30.220 ,5,0,,0,0.,4.8,0.,4.8,,0,0.,4.8,0.,4.8
1979-03-10 06:25:35.020 ,4,0,,0,0.,4.8,0.,4.8,,0,0.,4.8,0.,4.8
1979-03-10 06:25:39.820 ,4,0,,0,0.,4.8,0.,4.8,,0,0.,4.8,0.,4.8
1979-03-10 06:25:44.620 ,4,0,,0,0.,4.8,0.,4.8,,0,0.,4.8,0.,4.8
1979-03-10 06:25:49.420 ,4,0,,0,0.,4.8,0.,4.8,,0,0.,4.8,0.,4.8
1979-03-10 06:25:54.220 ,4,0,,0,0.,4.8,0.,4.8,,0,0.,4.8,0.,4.8
1979-03-10 06:25:59.020 ,3,0,,0,0.,4.8,0.,4.8,,0,0.,4.8,0.,4.8
1979-03-10 06:26:03.820 ,3,0,,0,1.,4.8,0.,4.8,,0,0.,4.8,0.,4.8
1979-03-10 06:26:08.620 ,3,0,,0,0.,4.8,0.,4.8,,0,0.,4.8,0.,4.8
1979-03-10 06:26:13.420 ,3,0,,0,0.,4.8,0.,4.8,,0,0.,4.8,0.,4.8
1979-03-10 06:26:18.220 ,3,0,,0,0.,4.8,0.,4.8,,0,0.,4.8,0.,4.8
1979-03-10 06:26:23.020 ,2,0,,0,0.,4.8,0.,4.8,,0,0.,4.8,0.,4.8
1979-03-10 06:26:27.820 ,2,0,,0,0.,4.8,0.,4.8,,0,0.,4.8,0.,4.8
1979-03-10 06:26:32.620 ,2,0,,0,0.,4.8,0.,4.8,,0,0.,4.8,0.,4.8
1979-03-10 06:26:37.420 ,2,0,,0,0.,4.8,0.,4.8,,0,0.,4.8,0.,4.8
1979-03-10 06:26:42.220 ,2,0,,0,0.,4.8,0.,4.8,,0,0.,4.8,0.,4.8
1979-03-10 06:26:47.020 ,1,0,,0,0.,4.8,0.,4.8,,0,0.,4.8,0.,4.8
1979-03-10 06:26:51.820 ,1,0,,0,0.,4.8,0.,4.8,,0,0.,4.8,0.,4.8
1979-03-10 06:26:56.620 ,1,0,,0,0.,4.8,0.,4.8,,0,0.,4.8,0.,4.8
1979-03-10 06:27:01.420 ,1,0,,0,0.,4.8,0.,4.8,,0,0.,4.8,0.,4.8
1979-03-10 06:27:06.220 ,1,0,,0,0.,4.8,0.,4.8,,0,0.,4.8,0.,4.8
1979-03-10 06:27:11.020 ,0,0,,0,0.,4.8,0.,4.8,,0,0.,4.8,0.,4.8
1979-03-10 06:27:15.820 ,0,0,,0,0.,4.8,0.,4.8,,0,0.,4.8,1.,4.8
1979-03-10 06:27:20.620 ,0,0,,0,0.,4.8,0.,4.8,,0,0.,4.8,0.,4.8
1979-03-10 06:27:25.420 ,0,0,,0,0.,4.8,0.,4.8,,0,0.,4.8,0.,4.8
1979-03-10 06:27:30.220 ,0,0,,0,0.,4.8,0.,4.8,,0,0.,4.8,0.,4.8
1979-03-10 06:27:35.020 ,0,0,,0,0.,4.8,0.,4.8,,0,0.,4.8,0.,4.8
1979-03-10 06:27:39.820 ,0,0,,0,0.,4.8,0.,4.8,,0,0.,4.8,0.,4.8
1979-03-10 06:27:44.620 ,0,0,,0,0.,4.8,0.,4.8,,0,0.,4.8,0.,4.8
1979-03-10 06:27:49.420 ,0,0,,0,0.,4.8,0.,4.8,,0,0.,4.8,0.,4.8
1979-03-10 06:27:54.220 ,0,0,,0,0.,4.8,0.,4.8,,0,0.,4.8,0.,4.8
1979-03-10 06:27:59.020 ,1,0,,0,0.,4.8,0.,4.8,,0,0.,4.8,0.,4.8
1979-03-10 06:28:03.820 ,1,0,,0,0.,4.8,0.,4.8,,0,0.,4.8,0.,4.8
1979-03-10 06:28:08.620 ,1,0,,0,0.,4.8,0.,4.8,,0,0.,4.8,0.,4.8
1979-03-10 06:28:13.420 ,1,0,,0,0.,4.8,0.,4.8,,0,0.,4.8,0.,4.8
1979-03-10 06:28:18.220 ,1,0,,0,0.,4.8,0.,4.8,,0,0.,4.8,0.,4.8
1979-03-10 06:28:23.020 ,2,0,,0,0.,4.8,0.,4.8,,0,0.,4.8,0.,4.8
1979-03-10 06:28:27.820 ,2,0,,0,0.,4.8,0.,4.8,,0,0.,4.8,0.,4.8
1979-03-10 06:28:32.620 ,2,0,,0,0.,4.8,0.,4.8,,0,0.,4.8,0.,4.8
1979-03-10 06:28:37.420 ,2,0,,0,0.,4.8,0.,4.8,,0,0.,4.8,0.,4.8
1979-03-10 06:28:42.220 ,2,0,,0,0.,4.8,0.,4.8,,0,0.,4.8,0.,4.8
1979-03-10 06:28:47.020 ,3,0,,0,0.,4.8,0.,4.8,,0,0.,4.8,0.,4.8
1979-03-10 06:28:51.820 ,3,0,,0,0.,4.8,0.,4.8,,0,0.,4.8,0.,4.8
1979-03-10 06:28:56.620 ,3,0,,0,0.,4.8,0.,4.8,,0,0.,4.8,0.,4.8
1979-03-10 06:29:01.420 ,3,0,,0,0.,4.8,0.,4.8,,0,0.,4.8,0.,4.8
1979-03-10 06:29:06.220 ,3,0,,0,0.,4.8,0.,4.8,,0,0.,4.8,0.,4.8
1979-03-10 06:29:11.020 ,4,0,,0,0.,4.8,0.,4.8,,0,0.,4.8,0.,4.8
1979-03-10 06:29:15.820 ,4,0,,0,0.,4.8,0.,4.8,,0,0.,4.8,0.,4.8
1979-03-10 06:29:20.620 ,4,0,,0,1.,4.8,0.,4.8,,0,0.,4.8,0.,4.8
1979-03-10 06:29:25.420 ,4,0,,0,0.,4.8,0.,4.8,,0,0.,4.8,0.,4.8
1979-03-10 06:29:30.220 ,4,0,,0,0.,4.8,0.,4.8,,0,0.,4.8,0.,4.8
1979-03-10 06:29:35.020 ,5,0,,0,0.,4.8,0.,4.8,,0,0.,4.8,0.,4.8
1979-03-10 06:29:39.820 ,5,0,,0,0.,4.8,0.,4.8,,0,0.,4.8,0.,4.8
1979-03-10 06:29:44.620 ,5,0,,0,0.,4.8,0.,4.8,,0,0.,4.8,0.,4.8
1979-03-10 06:29:49.420 ,5,0,,0,0.,4.8,0.,4.8,,0,0.,4.8,0.,4.8
1979-03-10 06:29:54.220 ,5,0,,0,0.,4.8,0.,4.8,,0,0.,4.8,0.,4.8
1979-03-10 06:29:59.020 ,6,0,,0,0.,4.8,0.,4.8,,0,0.,4.8,0.,4.8
1979-03-10 06:30:03.820 ,6,0,,0,0.,4.8,0.,4.8,,0,0.,4.8,0.,4.8
1979-03-10 06:30:08.620 ,6,0,,0,0.,4.8,0.,4.8,,0,0.,4.8,0.,4.8